Location: Bow
(51.5261°N, 0.0167°W)
Time: 23:19:50
(UTC+00:00)

Sich 1 Rocket - Pass Details

Date: 18 September 2020
Orbit: 616 x 653 km, 82.5° (Epoch: 30 October)

Event Time Altitude Azimuth Distance (km) Brightness Sun altitude
Rises 19:21:14 0° 187° (S) 2,919 6.9 -12.2°
Reaches altitude 10° 19:23:27 10° 186° (S) 2,021 6.1 -12.5°
Maximum altitude 19:27:57 84° 99° (E) 653 3.6 -13.2°
Drops below altitude 10° 19:32:32 10° 12° (NNE) 2,060 6.3 -13.9°
Sets 19:34:48 0° 12° (NNE) 2,979 7.2 -14.2°
